User: anonymous   Login
Location: Steinbach
(49.5170°N, 96.6830°W)
Time: 22:23:08
(UTC-05:00)
Language:

NOSS 3-4 (A) - Orbit

View from above orbital plane
View from above orbital plane
View from above satellite
View from above satellite

Ground track
Ground track

The orbit data is extracted from the following two-line orbital elements,

1 31701U 07027A   15094.81578346 0.00000020  00000-0  34591-4 0    00
2 31701  63.4020 333.3637 0128000  31.1995 328.8004 13.40677438    04
Epoch (UTC): 04 April 2015 19:34:43
Eccentricity: 0.0128000
inclination: 63.4020°
perigee height: 1011 km
apogee height: 1202 km
right ascension of ascending node: 333.3637°
argument of perigee: 31.1995°
revolutions per day: 13.40677438
mean anomaly at epoch: 328.8004°
orbit number at epoch: 0

The dashed part of the orbit path shows where the satellite is in the earth's shadow,  

DLR